Tracking 20623 objects as of 3-Apr-2020
HD Live streaming from Space Station
objects crossing your sky now

ARIANE 3 DEB *

Track ARIANE 3 DEB * now!


NORAD ID: 17254
Int'l Code: 1986-026F
Perigee: 485.0 km
Apogee: 28,455.3 km
Inclination: 8.6 °
Period: 499.0 minutes
Semi major axis: 20841 km
RCS: 0.6909 m2 (medium)
Launch date: March 28, 1986
Source: France (FR)
Launch site: FRENCH GUIANA (FRGUI)

Note: This is SATELLITE DEBRIS
aabbcc
Your satellite tracking list
Your tracking list is empty




NASA's NSSDC Master Catalog

Two Line Element Set (TLE):
1 17254U 86026F   20093.70816833 -.00000217  00000-0 -10397-2 0  9995
2 17254   8.5548 326.8733 6710334 311.6309   7.8292  2.88549435278485
Source of the keplerian elements: AFSPC